Regional Weather Roundup
Issued by NWS

Home | Current Version | Previous Version | Text Only | Print | Product List | Glossary On
Versions: 1 2 3 4 5 6 7 8 9 10 11 12 13 14 15 16 17 18 19 20 21 22 23 24 25 26 27 28 29 30 31 32 33 34 35 36 37 38 39 40 41 42 43 44 45 46 47 48 49 50
000
ASUS45 KREV 201110
RWRNV
NEVADA REGIONAL WEATHER ROUNDUP
NATIONAL WEATHER SERVICE RENO NV
400 AM PDT SAT SEP 20 2014

NOTE: "FAIR" INDICATES FEW OR NO CLOUDS BELOW 12,000 FEET WITH NO
SIGNIFICANT WEATHER AND/OR OBSTRUCTIONS TO VISIBILITY.

NVZ001-003-004-201200-
WESTERN NEVADA

CITY           SKY/WX    TMP DP  RH WIND       PRES   REMARKS
RENO           PTCLDY    58  42  55 S5        30.08R
CARSON CITY    FAIR      55  37  50 CALM      30.09S
MINDEN         FAIR      46  36  66 CALM      30.10S
SLIDE MTN        N/A     50  32  50 NE24        N/A
PYRAMID LAKE     N/A     73 N/A N/A NW6         N/A
FALLON         CLEAR     54  38  54 SW6       30.03R
LOVELOCK       CLEAR     66  39  37 NE9       30.03R
HAWTHORNE      CLEAR     63  39  42 CALM      30.05R
$$

NVZ002-CAZ072-073-201200-
NORTHERN AND CENTRAL SIERRA

CITY           SKY/WX    TMP DP  RH WIND       PRES   REMARKS
S. LAKE TAHOE  CLEAR     44  34  67 CALM      30.17S
TRUCKEE        CLEAR     41  34  75 CALM      30.17S
SQUAW VLY 8000 NOT AVBL
SUSANVILLE     CLEAR     54  37  54 W5        30.08S
BLUE CANYON    CLEAR     59  43  55 VRB3      30.10S HAZE
MAMMOTH LAKES  FAIR      43  30  61 CALM      30.22S
BRIDGEPORT     FAIR      39  27  62 CALM      30.19S
$$

NVZ030-031-036-201200-
NORTHERN NEVADA

CITY           SKY/WX    TMP DP  RH WIND       PRES   REMARKS
ELKO           CLEAR     51  38  60 CALM      30.16R
WINNEMUCCA     CLEAR     65  42  43 NE16G22   30.09S
WENDOVER       CLEAR     63  45  51 CALM      30.13S
$$

NVZ035-037-201200-
CENTRAL NEVADA

CITY           SKY/WX    TMP DP  RH WIND       PRES   REMARKS
ELY            CLEAR     45  34  65 S7        30.23S
EUREKA           N/A     45  32  60 SW3       30.19R
$$

NVZ013-014-201200-
SOUTH CENTRAL NEVADA

CITY           SKY/WX    TMP DP  RH WIND       PRES   REMARKS
TONOPAH        CLEAR     57  29  34 N13       30.13S
$$

NVZ017-020-022-201200-
SOUTHERN NEVADA

CITY           SKY/WX    TMP DP  RH WIND       PRES   REMARKS
LAS VEGAS      MOCLDY    80  41  24 S9        29.86S
N. LAS VEGAS   MOCLDY    76  41  28 N5        29.88F
NELLIS AFB     MOCLDY    75  41  29 CALM      29.87S
HENDERSON      MOCLDY    77  40  26 S5        29.92S
MERCURY        PTCLDY    67  41  38 E5        29.97S
$$


USA.gov is the U.S. government's official web portal to all federal, state and local government web resources and services.